Location: Unspecified
(34.0936°S, 0.0000°E)
Time: 01:25:09
(UTC+00:00)

SR - Visible Passes

Search period start: 05 April 2026 00:00
Search period end: 15 April 2026 00:00
Orbit: 571 x 850 km, 66.7° (Epoch: 29 March)

Date Brightness Start Highest point End Pass type
(mag) Time Alt. Az. Time Alt. Az. Time Alt. Az.
5 Apr ? 03:34:05 16° NE 03:36:48 22° ENE 03:40:55 10° ESE visible
5 Apr ? 05:13:14 12° NW 05:18:13 43° WSW 05:23:17 10° SSE visible
6 Apr ? 04:21:08 41° NNW 04:23:07 82° ENE 04:28:28 10° SSE visible
7 Apr ? 03:28:44 34° E 03:28:44 34° E 03:33:01 10° SE visible
7 Apr ? 05:07:51 23° W 05:09:51 29° WSW 05:14:25 10° S visible
8 Apr ? 02:36:09 10° ESE 02:36:09 10° ESE 02:36:16 10° ESE visible
8 Apr ? 04:15:14 60° SSW 04:15:14 60° SSW 04:19:54 10° SSE visible
9 Apr ? 03:22:27 26° SE 03:22:27 26° SE 03:24:48 10° SE visible
9 Apr ? 05:01:33 19° SW 05:01:33 19° SW 05:05:18 10° S visible
10 Apr ? 04:08:37 26° S 04:08:37 26° S 04:11:10 10° SSE visible
11 Apr ? 03:15:34 15° SSE 03:15:34 15° SSE 03:16:22 10° SSE visible
11 Apr ? 04:54:38 12° SSW 04:54:38 12° SSW 04:55:40 10° SSW visible
12 Apr ? 04:01:29 14° S 04:01:29 14° S 04:02:15 10° S visible
